[[{"header":{"parameterUnit":"m.s-1","parameterCategory":1,"la1":30.2991,"la2":30.254,"lo1":-89.0895,"lo2":-89.0444,"dy":0.0017,"dx":0.0017,"nx":28,"ny":28,"refTime":"2025-08-30T09:00:00:Z","depth":0,"parameterNumber":2,"parameterNumberName":"U-component_of_WINDS"},"data":[0,0,0,0,0,0,0,0,0,0,0,0,0,0,0,0,0,0,0,0,0,0,0,0,0,0,0,0,0,0,0,0,0,0,0,0,0,0,0,0,0,0,0,0,0,0,0,0,0,0,0,0,0,0,0,0,0,0,-2.1335,-2.1336,0,-2.1372,-2.1372,-2.1372,-2.1245,-2.1241,-2.1238,-2.1234,-2.1276,-2.1281,-2.1285,0,0,0,0,0,0,0,0,0,0,0,0,0,-2.116,-2.1164,-2.1335,-2.1336,-2.1336,-2.1371,-2.1372,-2.1372,-2.1246,-2.1241,-2.1237,-2.1232,-2.1275,-2.128,-2.1286,0,0,0,0,0,0,0,0,0,0,0,0,0,-2.122,-2.1165,-2.1335,-2.1277,-2.1272,-2.1371,-2.1372,-2.1373,-2.1247,-2.1241,-2.1235,-2.123,-2.1273,-2.128,-2.1287,-2.1445,0,0,-2.1308,-2.1311,0,0,0,0,0,0,0,0,-2.1217,-2.1227,-2.1285,-2.1281,-2.1276,-2.1298,-2.1325,-2.1397,-2.1248,-2.1257,-2.1234,-2.1227,-2.1288,-2.1294,-2.1313,-2.1447,-2.1448,-2.1309,-2.1313,-2.1316,-2.1318,0,0,0,0,0,0,0,-2.1213,-2.1225,-2.135,-2.1286,-2.1281,-2.125,-2.1253,-2.1338,-2.1305,-2.1256,-2.1246,-2.1252,-2.1285,-2.1307,-2.1313,-2.1449,-2.1308,-2.1315,-2.1319,-2.1322,-2.1715,-2.1721,0,0,0,0,0,0,-2.1216,-2.1222,-2.1348,-2.1351,-2.1232,-2.1258,-2.1261,-2.1297,-2.1303,-2.1298,-2.1257,-2.1246,-2.1298,-2.1305,-2.1314,-2.1501,-2.1316,-2.1322,-2.1326,-2.1709,-2.1716,-2.1723,0,0,0,0,0,0,-2.1212,-2.1228,-2.1347,-2.1284,-2.1297,-2.1267,-2.1309,-2.1301,-2.1322,-2.1304,-2.1298,-2.1286,-2.1293,-2.1304,-2.1413,-2.1501,-2.1326,-2.1332,-2.1701,-2.1711,-2.172,-2.1876,0,0,0,0,0,0,-2.1208,-2.1228,-2.1287,-2.1286,-2.13,-2.1445,-2.1314,-2.1305,-2.1334,-2.132,-2.1329,-2.1325,-2.129,-2.1403,-2.142,-2.1507,-2.1337,-2.1693,-2.1706,-2.1717,-2.1863,-2.189,-2.1912,0,0,0,0,0,-2.1202,-2.133,-2.1291,-2.1307,-2.1374,-2.145,-2.1458,-2.1413,-2.1342,-2.1402,-2.139,-2.1325,-2.1488,-2.1415,-2.1433,-2.1524,-2.1688,-2.1702,-2.1716,-2.1852,-2.1884,-2.1912,0,0,0,0,0,0,-2.1345,-2.1329,-2.1285,-2.1417,-2.1435,-2.1428,-2.1503,-2.1449,-2.149,-2.1475,-2.1419,-2.1422,-2.1541,-2.1543,-2.1463,-2.1678,-2.1576,-2.1594,-2.1673,-2.1704,-2.1728,-2.1727,-2.1343,0,0,0,0,0,-2.1391,-2.1453,-2.1436,-2.1554,-2.1566,-2.1533,-2.1564,-2.1528,-2.1546,-2.1554,-2.1549,-2.1571,-2.1626,-2.1664,-2.1714,-2.1861,-2.1862,-2.1932,-2.1957,-2.1977,-2.1995,-2.2074,-2.2106,-2.1769,-2.1769,-2.1769,0,0,-2.1488,-2.1487,-2.153,-2.1583,-2.1593,-2.166,-2.1541,-2.1616,-2.1666,-2.1565,-2.1668,-2.1666,-2.1685,-2.1814,-2.1871,-2.1819,-2.2088,-2.1995,-2.2012,-2.2018,-2.2092,-2.2124,-2.2152,-2.1778,-2.1777,-2.1775,0,0,-2.17,-2.1705,-2.1804,-2.1816,-2.1832,-2.1809,-2.1833,-2.1834,-2.1828,-2.193,-2.1856,-2.1914,-2.2011,-2.2028,-2.205,-2.2267,-2.221,-2.2284,-2.2415,-2.2493,-2.2519,-2.2543,-2.2622,-2.2651,-2.2301,-2.2302,-2.2302,0,-2.182,-2.1917,-2.1862,-2.1943,-2.1969,-2.1878,-2.1979,-2.1994,-2.2027,-2.2048,-2.1988,-2.2108,-2.2115,-2.2247,-2.23,-2.2319,-2.2346,-2.2285,-2.2519,-2.2542,-2.2563,-2.2639,-2.2669,-2.2311,-2.231,-2.2309,-2.2308,0,-2.2064,-2.2132,-2.221,-2.2243,-2.2277,-2.2368,-2.2328,-2.2369,-2.2329,-2.2313,-2.2418,-2.2422,-2.2472,-2.25,-2.2462,-2.2627,-2.2595,-2.2529,-2.2425,-2.2606,-2.2676,-2.2704,-2.2324,-2.2321,-2.2318,-2.2316,0,0,-2.237,-2.2369,-2.24,-2.2413,-2.2424,-2.2476,-2.2562,-2.2609,-2.2647,-2.2672,-2.2745,-2.2827,-2.2766,-2.2791,-2.2753,-2.2821,-2.2995,-2.2746,-2.2746,-2.2795,-2.318,-2.3232,-2.3266,-2.2956,-2.2961,-2.2965,-2.3179,0,-2.2581,-2.2728,-2.2681,-2.283,-2.2893,-2.2807,-2.2882,-2.2898,-2.2884,-2.2937,-2.2921,-2.2982,-2.2895,-2.291,-2.2973,-2.2961,-2.3072,-2.2944,-2.3025,-2.3029,-2.3027,-2.3302,-2.3358,-2.356,-2.3206,-2.321,-2.3214,0,-2.2846,-2.2881,-2.3036,-2.3036,-2.306,-2.3129,-2.3169,-2.3219,-2.3235,-2.322,-2.3247,-2.3195,-2.3281,-2.3175,-2.3294,-2.3208,-2.3237,-2.3237,-2.3243,-2.3252,-2.3135,-2.3322,-2.3623,-2.3655,-2.3256,-2.3253,-2.3249,0,-2.3058,-2.3142,-2.3246,-2.326,-2.3262,-2.3312,-2.3316,-2.3325,-2.3356,-2.3391,-2.3411,-2.3455,-2.3481,-2.3517,-2.3479,-2.3405,-2.3605,-2.3495,-2.3597,-2.3599,-2.3646,-2.3645,-2.396,-2.3661,-2.366,-2.3659,-2.3659,0,-2.33,-2.3399,-2.3341,-2.3406,-2.3515,-2.3459,-2.3569,-2.3562,-2.3571,-2.3634,-2.3561,-2.3622,-2.3567,-2.3623,-2.3594,-2.3698,-2.3709,-2.3701,-2.3693,-2.371,-2.3711,-2.3731,-2.3718,-2.3667,-2.3666,-2.3664,-2.3663,0,-2.3556,-2.3521,-2.3629,-2.362,-2.362,-2.3702,-2.3695,-2.3755,-2.3734,-2.3815,-2.3831,-2.38,-2.3862,-2.3827,-2.3891,-2.3871,-2.4007,-2.3978,-2.4002,-2.3996,-2.4101,-2.4093,-2.4443,-2.4487,-2.4157,-2.416,-2.4163,0,-2.3714,-2.3789,-2.3787,-2.3823,-2.3831,-2.389,-2.3921,-2.3868,-2.3904,-2.3927,-2.3985,-2.404,-2.4082,-2.4185,-2.417,-2.4219,-2.4192,-2.4311,-2.4199,-2.4214,-2.4197,-2.4195,-2.4203,-2.4335,-2.4339,-2.4342,-2.4345,0,-2.4,-2.3979,-2.4025,-2.4067,-2.4105,-2.4135,-2.416,-2.4194,-2.4141,-2.4185,-2.4247,-2.4279,-2.4343,-2.44,-2.4441,-2.4445,-2.4389,-2.4379,-2.4406,-2.4426,-2.4438,-2.4436,-2.4067,-2.4373,-2.437,-2.4368,-2.4366,-2.4365,-2.4214,-2.4277,-2.4285,-2.434,-2.4352,-2.4376,-2.4432,-2.4418,-2.4468,-2.4516,-2.4481,-2.4555,-2.4568,-2.4617,-2.4629,-2.4687,-2.4639,-2.4677,-2.4688,-2.4699,-2.4714,-2.4426,-2.4694,-2.4693,-2.4692,-2.4691,-2.4691,0,-2.4499,-2.45,-2.455,-2.4585,-2.4629,-2.4567,-2.459,-2.4631,-2.4697,-2.4713,-2.4755,-2.4826,-2.488,-2.4868,-2.4917,-2.4966,-2.4941,-2.4981,-2.4979,-2.4981,-2.4753,-2.4726,-2.5001,-2.5,-2.5,-2.5,-2.5,-2.5,-2.4652,-2.4755,-2.4734,-2.4842,-2.4842,-2.4912,-2.4931,-2.4953,-2.4966,-2.5049,-2.5093,-2.5083,-2.5089,-2.5137,-2.5185,-2.5179,-2.5203,-2.5253,-2.5239,-2.5027,-2.4997,-2.4968,-2.4942,-2.5258,-2.5258,-2.5463,-2.5464,-2.5466]},{"header":{"parameterUnit":"m.s-1","parameterCategory":1,"la1":30.2991,"la2":30.254,"lo1":-89.0895,"lo2":-89.0444,"dy":0.0017,"dx":0.0017,"nx":28,"ny":28,"refTime":"2025-08-30T09:00:00:Z","depth":0,"parameterNumber":3,"parameterNumberName":"V-component_of_WINDS"},"data":[0,0,0,0,0,0,0,0,0,0,0,0,0,0,0,0,0,0,0,0,0,0,0,0,0,0,0,0,0,0,0,0,0,0,0,0,0,0,0,0,0,0,0,0,0,0,0,0,0,0,0,0,0,0,0,0,0,0,-3.0732,-3.0732,0,-3.0744,-3.0744,-3.0744,-3.068,-3.0678,-3.0676,-3.0674,-3.0685,-3.0687,-3.0689,0,0,0,0,0,0,0,0,0,0,0,0,0,-3.0654,-3.0655,-3.0732,-3.0732,-3.0733,-3.0744,-3.0744,-3.0744,-3.068,-3.0678,-3.0676,-3.0673,-3.0684,-3.0687,-3.0689,0,0,0,0,0,0,0,0,0,0,0,0,0,-3.0679,-3.0656,-3.0732,-3.0702,-3.0699,-3.0744,-3.0744,-3.0744,-3.068,-3.0678,-3.0675,-3.0672,-3.0684,-3.0687,-3.0689,-3.0763,0,0,-3.0699,-3.07,0,0,0,0,0,0,0,0,-3.0677,-3.0682,-3.0706,-3.0704,-3.0701,-3.0707,-3.072,-3.075,-3.0681,-3.0688,-3.0674,-3.0671,-3.0695,-3.0697,-3.0705,-3.0763,-3.0764,-3.0699,-3.0701,-3.0702,-3.0703,0,0,0,0,0,0,0,-3.0676,-3.0681,-3.0737,-3.0707,-3.0704,-3.0687,-3.0688,-3.0725,-3.0706,-3.0687,-3.0682,-3.0685,-3.0693,-3.0702,-3.0704,-3.0764,-3.0699,-3.0701,-3.0703,-3.0704,-3.0882,-3.0885,0,0,0,0,0,0,-3.0678,-3.068,-3.0736,-3.0737,-3.0682,-3.0691,-3.0692,-3.0708,-3.0706,-3.0703,-3.0687,-3.0682,-3.0698,-3.0701,-3.0705,-3.079,-3.0702,-3.0705,-3.0706,-3.0879,-3.0883,-3.0886,0,0,0,0,0,0,-3.0677,-3.0684,-3.0736,-3.0707,-3.0713,-3.0695,-3.0715,-3.071,-3.0719,-3.0706,-3.0702,-3.07,-3.0696,-3.07,-3.0749,-3.0789,-3.0706,-3.0709,-3.0876,-3.088,-3.0884,-3.0961,0,0,0,0,0,0,-3.0675,-3.0684,-3.0712,-3.0708,-3.0714,-3.0781,-3.0717,-3.0712,-3.0724,-3.0718,-3.0717,-3.0714,-3.0694,-3.0745,-3.0752,-3.0792,-3.0711,-3.0872,-3.0878,-3.0883,-3.0955,-3.0967,-3.0978,0,0,0,0,0,-3.0672,-3.0733,-3.0714,-3.0721,-3.0749,-3.0783,-3.0786,-3.0762,-3.0728,-3.0756,-3.0747,-3.0714,-3.0784,-3.075,-3.0757,-3.0799,-3.0869,-3.0876,-3.0882,-3.0949,-3.0965,-3.0978,0,0,0,0,0,0,-3.0742,-3.0732,-3.0711,-3.0772,-3.0779,-3.0772,-3.0807,-3.078,-3.0796,-3.0789,-3.0758,-3.0759,-3.0812,-3.081,-3.0773,-3.0869,-3.082,-3.0829,-3.0869,-3.0883,-3.0895,-3.0894,-3.0714,0,0,0,0,0,-3.0765,-3.0793,-3.0783,-3.0838,-3.0843,-3.0824,-3.0838,-3.0819,-3.0825,-3.0827,-3.0822,-3.0828,-3.0851,-3.0867,-3.0888,-3.0954,-3.0952,-3.0986,-3.0998,-3.1008,-3.1015,-3.1049,-3.1064,-3.0907,-3.0907,-3.0907,0,0,-3.0812,-3.081,-3.083,-3.0852,-3.0855,-3.0885,-3.0827,-3.0861,-3.0883,-3.0832,-3.0877,-3.0874,-3.0879,-3.0936,-3.0961,-3.0936,-3.1058,-3.1016,-3.1024,-3.1026,-3.1057,-3.1072,-3.1085,-3.0912,-3.0911,-3.091,0,0,-3.0913,-3.0914,-3.096,-3.0964,-3.0969,-3.0956,-3.0967,-3.0964,-3.096,-3.1005,-3.0967,-3.0992,-3.1033,-3.1037,-3.1045,-3.1147,-3.1117,-3.1154,-3.1216,-3.1249,-3.1261,-3.1272,-3.1308,-3.1321,-3.1162,-3.1162,-3.1162,0,-3.097,-3.1014,-3.0987,-3.1024,-3.1034,-3.099,-3.1035,-3.104,-3.1052,-3.106,-3.1032,-3.1081,-3.1081,-3.1139,-3.1164,-3.1172,-3.1183,-3.1154,-3.1262,-3.1272,-3.1282,-3.1316,-3.1329,-3.1166,-3.1166,-3.1165,-3.1165,0,-3.1084,-3.1115,-3.1151,-3.1164,-3.1178,-3.1219,-3.1198,-3.1216,-3.1195,-3.1185,-3.1231,-3.1229,-3.1248,-3.126,-3.1241,-3.1315,-3.1299,-3.1267,-3.1217,-3.1302,-3.1333,-3.1346,-3.1173,-3.1171,-3.117,-3.1169,0,0,-3.123,-3.1226,-3.124,-3.1245,-3.1246,-3.1269,-3.1308,-3.1326,-3.1342,-3.1351,-3.1382,-3.1417,-3.1387,-3.1396,-3.1376,-3.1406,-3.1485,-3.137,-3.1369,-3.1391,-3.1566,-3.159,-3.1605,-3.1465,-3.1468,-3.1469,-3.1565,0,-3.1328,-3.1394,-3.1371,-3.1438,-3.1465,-3.1422,-3.1456,-3.146,-3.1451,-3.1473,-3.1463,-3.1488,-3.1447,-3.1452,-3.1479,-3.147,-3.152,-3.1463,-3.1493,-3.1495,-3.1493,-3.1622,-3.1647,-3.1738,-3.1577,-3.1579,-3.1581,0,-3.1452,-3.1466,-3.1536,-3.1531,-3.1542,-3.1573,-3.1587,-3.1608,-3.1612,-3.1603,-3.1613,-3.1587,-3.1623,-3.1574,-3.1623,-3.1585,-3.1596,-3.1593,-3.1596,-3.1598,-3.1543,-3.1627,-3.1766,-3.178,-3.16,-3.1598,-3.1597,0,-3.1551,-3.1587,-3.1633,-3.1638,-3.1635,-3.1657,-3.1656,-3.1657,-3.167,-3.1682,-3.169,-3.1707,-3.1716,-3.1729,-3.1708,-3.1674,-3.176,-3.1709,-3.1754,-3.1754,-3.1774,-3.1773,-3.1917,-3.1782,-3.1782,-3.1781,-3.1781,0,-3.1663,-3.1707,-3.1677,-3.1705,-3.1753,-3.1725,-3.1773,-3.1768,-3.1769,-3.1795,-3.1759,-3.1784,-3.1755,-3.1777,-3.176,-3.1804,-3.1808,-3.1802,-3.1797,-3.1805,-3.1806,-3.1812,-3.1805,-3.1785,-3.1784,-3.1783,-3.1783,0,-3.1781,-3.1763,-3.181,-3.1803,-3.1802,-3.1838,-3.1831,-3.1856,-3.1845,-3.1878,-3.1884,-3.1866,-3.189,-3.187,-3.1894,-3.1883,-3.194,-3.1926,-3.1939,-3.1935,-3.1981,-3.1977,-3.2133,-3.2152,-3.2006,-3.2007,-3.2008,0,-3.1854,-3.1887,-3.1882,-3.1897,-3.1899,-3.1924,-3.1936,-3.1909,-3.1923,-3.1929,-3.1954,-3.1975,-3.199,-3.2031,-3.202,-3.2037,-3.2023,-3.2077,-3.2026,-3.2033,-3.2024,-3.2022,-3.2025,-3.2088,-3.2089,-3.2091,-3.2092,0,-3.1984,-3.1973,-3.1992,-3.2008,-3.2024,-3.2035,-3.2043,-3.2057,-3.203,-3.2047,-3.2071,-3.2083,-3.2107,-3.2128,-3.2142,-3.2141,-3.2112,-3.2108,-3.2119,-3.2128,-3.2134,-3.213,-3.1967,-3.2105,-3.2103,-3.2102,-3.2102,-3.2101,-3.2081,-3.2108,-3.2109,-3.2131,-3.2135,-3.2143,-3.2166,-3.2157,-3.2177,-3.2194,-3.2177,-3.2206,-3.2208,-3.2223,-3.2226,-3.2248,-3.2225,-3.2242,-3.2246,-3.225,-3.2257,-3.213,-3.225,-3.225,-3.2249,-3.2249,-3.2249,0,-3.2209,-3.2208,-3.2228,-3.2241,-3.2258,-3.2229,-3.2236,-3.2252,-3.2278,-3.2283,-3.2298,-3.2326,-3.2346,-3.2336,-3.2353,-3.2373,-3.236,-3.2378,-3.2376,-3.2376,-3.2276,-3.2264,-3.2388,-3.2388,-3.2388,-3.2388,-3.2388,-3.2388,-3.2278,-3.2322,-3.2311,-3.2355,-3.2353,-3.2381,-3.2388,-3.2395,-3.2398,-3.243,-3.2446,-3.2439,-3.2438,-3.2454,-3.2471,-3.2468,-3.2476,-3.2499,-3.2491,-3.2397,-3.2383,-3.237,-3.2359,-3.2501,-3.2501,-3.2589,-3.259,-3.259]}]]